User: anonymous   Login
Location: NJAA Observatory
(40.6819°N, 74.8979°W)
Time: 07:08:16
(UTC-04:00)
Language:

CENTAUR R/B - Orbit

View from above orbital plane
View from above orbital plane
View from above satellite
View from above satellite

Ground track
Ground track

The orbit data is extracted from the following two-line orbital elements,

1 26906U 01040B   16112.06525877 0.00000060  00000-0  76559-4 0    04
2 26906  63.4595 335.1198 0317000 342.6182  17.3818 13.43987439    03
Epoch (UTC): 21 April 2016 01:33:58
Eccentricity: 0.0317000
inclination: 63.4595°
perigee height: 857 km
apogee height: 1331 km
right ascension of ascending node: 335.1198°
argument of perigee: 342.6182°
revolutions per day: 13.43987439
mean anomaly at epoch: 17.3818°
orbit number at epoch: 0

The dashed part of the orbit path shows where the satellite is in the earth's shadow,  

DLR